Voltar ao catálogo

TAIJING-4 02A

AtivoCiênciaSSO
NORAD 64087·PAYLOAD·🇨🇳 China
Este nome de satélite ainda não foi confirmado por fontes oficiais.

Lançado May 21, 2025 de Jiuquan Satellite Launch Center

Loading…

Próximas Passagens (próximas 24 horas)

TLE

AtualizadoSource: Space-Track

Época: Sep 14, 2026, 22:47 UTC

1 64087U 25108A   26257.94985606  .00004573  00000-0  23530-3 0  9995
2 64087  97.4695 331.3708 0002734  23.9819 336.1542 15.16923253 72921

Acompanhe TAIJING-4 02A em tempo real com AllMySat

Download on the App Store